Time,TemperatureF,DewpointF,PressureIn,WindDirection,WindDirectionDegrees,WindSpeedMPH,WindSpeedGustMPH,Humidity,HourlyPrecipIn,Conditions,Clouds,dailyrainin,SoftwareType,DateUTC
2013-12-04 00:04:00,40.9,40.0,29.91,ENE,65,3.0,4.0,97,0.00,,,0.01,weatherlink.com 1.10,2013-12-04 05:04:00,
2013-12-04 00:19:00,41.0,40.0,29.90,East,83,3.0,6.0,97,0.00,,,0.01,weatherlink.com 1.10,2013-12-04 05:19:00,
2013-12-04 00:35:00,41.1,40.0,29.90,ENE,66,2.0,6.0,97,0.00,,,0.01,weatherlink.com 1.10,2013-12-04 05:35:00,
2013-12-04 00:50:00,41.1,40.0,29.90,ENE,66,2.0,4.0,97,0.00,,,0.01,weatherlink.com 1.10,2013-12-04 05:50:00,
2013-12-04 01:05:00,41.4,41.0,29.91,NE,55,1.0,7.0,97,0.00,,,0.01,weatherlink.com 1.10,2013-12-04 06:05:00,
2013-12-04 01:20:00,41.5,41.0,29.92,ENE,78,0.0,6.0,97,0.00,,,0.01,weatherlink.com 1.10,2013-12-04 06:20:00,
2013-12-04 01:35:00,41.8,41.0,29.92,NE,41,0.0,4.0,97,0.00,,,0.01,weatherlink.com 1.10,2013-12-04 06:35:00,
2013-12-04 01:50:00,41.8,41.0,29.93,ENE,61,2.0,3.0,97,0.00,,,0.01,weatherlink.com 1.10,2013-12-04 06:50:00,
2013-12-04 02:05:00,41.9,41.0,29.93,ENE,68,2.0,4.0,97,0.00,,,0.01,weatherlink.com 1.10,2013-12-04 07:05:00,
2013-12-04 02:20:00,41.9,41.0,29.93,ENE,67,2.0,6.0,97,0.00,,,0.01,weatherlink.com 1.10,2013-12-04 07:20:00,
2013-12-04 02:35:00,41.8,41.0,29.92,ENE,59,3.0,5.0,97,0.00,,,0.01,weatherlink.com 1.10,2013-12-04 07:35:00,
2013-12-04 02:50:00,41.5,41.0,29.92,ENE,62,3.0,5.0,98,0.00,,,0.01,weatherlink.com 1.10,2013-12-04 07:50:00,
2013-12-04 03:05:00,41.5,41.0,29.91,ENE,58,3.0,5.0,98,0.00,,,0.01,weatherlink.com 1.10,2013-12-04 08:05:00,
2013-12-04 03:20:00,41.4,41.0,29.91,ENE,61,2.0,4.0,97,0.00,,,0.01,weatherlink.com 1.10,2013-12-04 08:20:00,
2013-12-04 03:35:00,41.3,41.0,29.91,NE,53,3.0,5.0,97,0.00,,,0.01,weatherlink.com 1.10,2013-12-04 08:35:00,
2013-12-04 03:50:00,41.1,40.0,29.91,NE,51,2.0,3.0,97,0.00,,,0.01,weatherlink.com 1.10,2013-12-04 08:50:00,
2013-12-04 04:05:00,41.2,40.0,29.91,ENE,57,3.0,4.0,97,0.00,,,0.01,weatherlink.com 1.10,2013-12-04 09:05:00,
2013-12-04 04:20:00,41.2,40.0,29.91,ENE,64,2.0,3.0,97,0.00,,,0.01,weatherlink.com 1.10,2013-12-04 09:20:00,
2013-12-04 04:35:00,41.0,40.0,29.91,NE,44,2.0,4.0,97,0.00,,,0.01,weatherlink.com 1.10,2013-12-04 09:35:00,
2013-12-04 04:50:00,40.7,40.0,29.91,NE,38,3.0,3.0,97,0.00,,,0.01,weatherlink.com 1.10,2013-12-04 09:50:00,
2013-12-04 05:05:00,40.6,40.0,29.91,NE,44,2.0,7.0,98,0.00,,,0.01,weatherlink.com 1.10,2013-12-04 10:05:00,
2013-12-04 05:20:00,40.0,40.0,29.91,NE,36,3.0,4.0,98,0.00,,,0.01,weatherlink.com 1.10,2013-12-04 10:20:00,
2013-12-04 05:35:00,40.3,40.0,29.92,NE,47,2.0,6.0,97,0.00,,,0.01,weatherlink.com 1.10,2013-12-04 10:35:00,
2013-12-04 05:50:00,40.6,40.0,29.93,NE,52,3.0,5.0,98,0.00,,,0.01,weatherlink.com 1.10,2013-12-04 10:50:00,
2013-12-04 06:05:00,40.7,40.0,29.93,NE,54,2.0,7.0,98,0.00,,,0.01,weatherlink.com 1.10,2013-12-04 11:05:00,
2013-12-04 06:20:00,42.7,42.0,29.93,NNE,32,3.0,8.0,98,0.00,,,0.01,weatherlink.com 1.10,2013-12-04 11:20:00,
2013-12-04 06:35:00,42.4,42.0,29.95,NE,42,2.0,5.0,98,0.00,,,0.01,weatherlink.com 1.10,2013-12-04 11:35:00,
2013-12-04 06:50:00,41.5,41.0,29.95,NE,52,4.0,5.0,98,0.00,,,0.01,weatherlink.com 1.10,2013-12-04 11:50:00,
2013-12-04 07:05:00,42.5,42.0,29.95,NE,34,2.0,8.0,98,0.00,,,0.01,weatherlink.com 1.10,2013-12-04 12:05:00,
2013-12-04 07:20:00,42.0,42.0,29.95,NE,47,2.0,4.0,98,0.00,,,0.01,weatherlink.com 1.10,2013-12-04 12:20:00,
2013-12-04 07:35:00,42.3,42.0,29.95,NE,42,1.0,3.0,98,0.00,,,0.01,weatherlink.com 1.10,2013-12-04 12:35:00,
2013-12-04 07:50:00,41.7,41.0,29.95,ENE,64,0.0,2.0,98,0.00,,,0.01,weatherlink.com 1.10,2013-12-04 12:50:00,
2013-12-04 08:05:00,42.1,42.0,29.95,NE,56,1.0,3.0,98,0.00,,,0.01,weatherlink.com 1.10,2013-12-04 13:05:00,
2013-12-04 08:20:00,42.5,42.0,29.95,NE,48,2.0,3.0,98,0.00,,,0.01,weatherlink.com 1.10,2013-12-04 13:20:00,
2013-12-04 08:35:00,43.0,43.0,29.96,ENE,61,2.0,4.0,98,0.00,,,0.01,weatherlink.com 1.10,2013-12-04 13:35:00,
2013-12-04 08:50:00,42.4,42.0,29.97,ENE,69,2.0,4.0,98,0.00,,,0.00,weatherlink.com 1.10,2013-12-04 13:50:00,
2013-12-04 09:05:00,43.7,43.0,29.98,ENE,75,3.0,5.0,98,0.00,,,0.00,weatherlink.com 1.10,2013-12-04 14:05:00,
2013-12-04 09:20:00,44.2,44.0,29.98,ENE,62,2.0,5.0,98,0.00,,,0.00,weatherlink.com 1.10,2013-12-04 14:20:00,
2013-12-04 09:35:00,44.3,44.0,29.99,ENE,76,2.0,6.0,98,0.00,,,0.00,weatherlink.com 1.10,2013-12-04 14:35:00,
2013-12-04 09:50:00,44.2,44.0,29.99,ENE,63,1.0,6.0,98,0.00,,,0.00,weatherlink.com 1.10,2013-12-04 14:50:00,
2013-12-04 10:05:00,44.8,44.0,30.00,ENE,65,2.0,7.0,98,0.00,,,0.00,weatherlink.com 1.10,2013-12-04 15:05:00,
2013-12-04 10:20:00,44.9,44.0,30.00,ENE,57,4.0,4.0,98,0.00,,,0.00,weatherlink.com 1.10,2013-12-04 15:20:00,
2013-12-04 10:35:00,46.4,46.0,30.01,ENE,58,2.0,5.0,98,0.00,,,0.00,weatherlink.com 1.10,2013-12-04 15:35:00,
2013-12-04 10:50:00,46.9,46.0,30.00,ENE,59,2.0,5.0,98,0.00,,,0.00,weatherlink.com 1.10,2013-12-04 15:50:00,
2013-12-04 11:05:00,47.6,47.0,29.99,NE,52,4.0,5.0,98,0.00,,,0.00,weatherlink.com 1.10,2013-12-04 16:05:00,
2013-12-04 11:20:00,48.1,48.0,29.99,NNE,26,5.0,5.0,98,0.00,,,0.00,weatherlink.com 1.10,2013-12-04 16:20:00,
2013-12-04 11:35:00,48.8,48.0,29.98,ENE,78,7.0,7.0,98,0.00,,,0.00,weatherlink.com 1.10,2013-12-04 16:35:00,
2013-12-04 11:50:00,48.5,48.0,29.98,ENE,58,1.0,7.0,98,0.00,,,0.00,weatherlink.com 1.10,2013-12-04 16:50:00,
2013-12-04 12:05:00,48.3,48.0,29.96,NE,44,1.0,6.0,98,0.00,,,0.00,weatherlink.com 1.10,2013-12-04 17:05:00,
2013-12-04 12:20:00,49.0,49.0,29.95,NE,47,3.0,5.0,98,0.00,,,0.00,weatherlink.com 1.10,2013-12-04 17:20:00,
2013-12-04 12:36:00,48.9,48.0,29.95,NE,46,3.0,8.0,97,0.00,,,0.00,weatherlink.com 1.10,2013-12-04 17:36:00,
2013-12-04 12:51:00,48.4,48.0,29.95,East,84,2.0,6.0,97,0.00,,,0.00,weatherlink.com 1.10,2013-12-04 17:51:00,
2013-12-04 13:06:00,48.7,48.0,29.95,ENE,71,1.0,5.0,97,0.00,,,0.00,weatherlink.com 1.10,2013-12-04 18:06:00,
2013-12-04 13:21:00,48.8,48.0,29.94,East,96,2.0,5.0,96,0.00,,,0.00,weatherlink.com 1.10,2013-12-04 18:21:00,
2013-12-04 13:36:00,48.7,47.0,29.94,ENE,63,3.0,4.0,95,0.00,,,0.00,weatherlink.com 1.10,2013-12-04 18:36:00,
2013-12-04 13:51:00,48.9,48.0,29.93,ENE,74,0.0,6.0,95,0.00,,,0.00,weatherlink.com 1.10,2013-12-04 18:51:00,
2013-12-04 14:06:00,48.7,47.0,29.93,East,88,0.0,5.0,94,0.00,,,0.00,weatherlink.com 1.10,2013-12-04 19:06:00,
2013-12-04 14:21:00,48.8,47.0,29.92,ENE,58,0.0,4.0,93,0.00,,,0.00,weatherlink.com 1.10,2013-12-04 19:21:00,
2013-12-04 14:36:00,48.1,46.0,29.93,NE,52,1.0,4.0,93,0.00,,,0.00,weatherlink.com 1.10,2013-12-04 19:36:00,
2013-12-04 14:51:00,48.2,47.0,29.93,ENE,57,2.0,3.0,94,0.00,,,0.00,weatherlink.com 1.10,2013-12-04 19:51:00,
2013-12-04 15:06:00,49.6,47.0,29.93,ENE,66,2.0,4.0,92,0.00,,,0.00,weatherlink.com 1.10,2013-12-04 20:06:00,
2013-12-04 15:21:00,50.4,48.0,29.94,ESE,119,0.0,3.0,91,0.00,,,0.00,weatherlink.com 1.10,2013-12-04 20:21:00,
2013-12-04 15:36:00,48.1,46.0,29.94,East,81,2.0,3.0,92,0.00,,,0.00,weatherlink.com 1.10,2013-12-04 20:36:00,
2013-12-04 15:51:00,46.4,45.0,29.94,ENE,65,1.0,4.0,94,0.00,,,0.00,weatherlink.com 1.10,2013-12-04 20:51:00,
2013-12-04 16:06:00,45.6,44.0,29.95,ENE,72,3.0,4.0,95,0.00,,,0.00,weatherlink.com 1.10,2013-12-04 21:06:00,
2013-12-04 16:21:00,45.2,44.0,29.96,ENE,65,0.0,4.0,96,0.00,,,0.00,weatherlink.com 1.10,2013-12-04 21:21:00,
2013-12-04 16:36:00,45.1,44.0,29.95,ENE,72,3.0,5.0,96,0.00,,,0.00,weatherlink.com 1.10,2013-12-04 21:36:00,
2013-12-04 16:51:00,44.9,44.0,29.95,ENE,64,3.0,5.0,97,0.00,,,0.00,weatherlink.com 1.10,2013-12-04 21:51:00,
2013-12-04 17:06:00,44.9,44.0,29.95,ENE,61,3.0,4.0,97,0.00,,,0.00,weatherlink.com 1.10,2013-12-04 22:06:00,
2013-12-04 17:21:00,44.9,44.0,29.96,ENE,69,2.0,9.0,97,0.00,,,0.00,weatherlink.com 1.10,2013-12-04 22:21:00,
2013-12-04 17:36:00,44.9,44.0,29.96,ENE,67,2.0,5.0,97,0.00,,,0.00,weatherlink.com 1.10,2013-12-04 22:36:00,
2013-12-04 17:51:00,44.9,44.0,29.96,ENE,62,3.0,5.0,97,0.00,,,0.00,weatherlink.com 1.10,2013-12-04 22:51:00,
2013-12-04 18:06:00,45.0,44.0,29.97,ENE,60,2.0,4.0,97,0.00,,,0.00,weatherlink.com 1.10,2013-12-04 23:06:00,
2013-12-04 18:21:00,45.0,44.0,29.97,ENE,67,4.0,7.0,97,0.00,,,0.00,weatherlink.com 1.10,2013-12-04 23:21:00,
2013-12-04 18:36:00,45.1,44.0,29.97,ENE,67,4.0,7.0,97,0.00,,,0.00,weatherlink.com 1.10,2013-12-04 23:36:00,
2013-12-04 18:51:00,45.2,45.0,29.97,ENE,67,5.0,7.0,98,0.00,,,0.00,weatherlink.com 1.10,2013-12-04 23:51:00,
2013-12-04 19:06:00,45.2,45.0,29.96,ENE,64,4.0,9.0,98,0.00,,,0.00,weatherlink.com 1.10,2013-12-05 00:06:00,
2013-12-04 19:21:00,45.1,45.0,29.97,ENE,62,4.0,7.0,98,0.00,,,0.00,weatherlink.com 1.10,2013-12-05 00:21:00,
2013-12-04 19:36:00,45.0,44.0,29.96,ENE,59,5.0,7.0,97,0.00,,,0.00,weatherlink.com 1.10,2013-12-05 00:36:00,
2013-12-04 19:51:00,45.0,44.0,29.97,ENE,59,4.0,8.0,97,0.00,,,0.00,weatherlink.com 1.10,2013-12-05 00:51:00,
2013-12-04 20:06:00,45.0,45.0,29.98,NE,56,4.0,7.0,98,0.00,,,0.00,weatherlink.com 1.10,2013-12-05 01:06:00,
2013-12-04 20:21:00,44.9,44.0,29.98,ENE,59,5.0,8.0,98,0.00,,,0.00,weatherlink.com 1.10,2013-12-05 01:21:00,
2013-12-04 20:36:00,44.9,44.0,29.97,ENE,68,4.0,11.0,98,0.00,,,0.00,weatherlink.com 1.10,2013-12-05 01:36:00,
2013-12-04 20:51:00,44.9,44.0,29.99,NE,45,4.0,8.0,98,0.00,,,0.00,weatherlink.com 1.10,2013-12-05 01:51:00,
2013-12-04 21:06:00,44.8,44.0,29.98,ENE,59,5.0,7.0,98,0.00,,,0.00,weatherlink.com 1.10,2013-12-05 02:06:00,
2013-12-04 21:21:00,44.6,44.0,29.98,ENE,58,5.0,7.0,98,0.00,,,0.00,weatherlink.com 1.10,2013-12-05 02:21:00,
2013-12-04 21:36:00,44.6,44.0,29.98,ENE,63,4.0,7.0,98,0.00,,,0.00,weatherlink.com 1.10,2013-12-05 02:36:00,
2013-12-04 21:51:00,44.7,44.0,29.98,ENE,68,4.0,7.0,98,0.00,,,0.00,weatherlink.com 1.10,2013-12-05 02:51:00,
2013-12-04 22:06:00,45.2,45.0,29.99,ENE,65,4.0,8.0,98,0.00,,,0.00,weatherlink.com 1.10,2013-12-05 03:06:00,
2013-12-04 22:21:00,45.5,45.0,29.99,ENE,65,4.0,7.0,98,0.00,,,0.00,weatherlink.com 1.10,2013-12-05 03:21:00,
2013-12-04 22:36:00,45.9,45.0,29.99,ENE,70,3.0,8.0,98,0.00,,,0.00,weatherlink.com 1.10,2013-12-05 03:36:00,
2013-12-04 22:51:00,46.1,46.0,30.00,ENE,58,3.0,6.0,98,0.00,,,0.00,weatherlink.com 1.10,2013-12-05 03:51:00,
2013-12-04 23:06:00,46.3,46.0,30.01,ENE,64,3.0,10.0,98,0.00,,,0.00,weatherlink.com 1.10,2013-12-05 04:06:00,
2013-12-04 23:21:00,46.5,46.0,30.02,NE,53,4.0,6.0,98,0.00,,,0.00,weatherlink.com 1.10,2013-12-05 04:21:00,
2013-12-04 23:36:00,46.5,46.0,30.02,ENE,73,3.0,7.0,98,0.00,,,0.00,weatherlink.com 1.10,2013-12-05 04:36:00,
2013-12-04 23:51:00,46.5,46.0,30.01,ENE,60,4.0,7.0,98,0.00,,,0.00,weatherlink.com 1.10,2013-12-05 04:51:00,